Starlink 32524

operational
NORAD ID: 62159 Int'l Des: 2024-224 Owner: SPXS Country: US Constellation: starlink
LEOCIRCULAR

关于 Starlink 32524

正在加载描述...

实时位置

正在加载3D地球...

即将过境

高度历史

Altitude vs Time

uPlot chart will show altitude changes over time

两行轨道根数

1 62159U 24224W 25258.21658428 .00047364 00000-0 17169-2 0 9995
2 62159 43.0040 72.5425 0001946 260.3666 99.6966 15.27632127 45448
Epoch: Sep 15, 2025 • Age: 20 hours

当前状态

高度 490.8 km
速度 7.62 km/s
星下点 -33.29°S, 78.61°W
发射日期 Nov 30, 2024
运行时间 0.7 years
类型 internet

技术详情

分类 Payload
质量 730.00 kg
干质量 700.00 kg
总质量 730.00 kg
长度 0.30 m
直径 4.10 m
跨度 29.00 m
形状 Box + pan
制造商 SPXS
平台类型 Starlink V2M
阶段状态 In Orbit
所有者/国家 SPXS/US

大型星座

Loading constellations...